Weather in Sredneye Baltayevo

Russia / Republic of Tatarstan     55°13′26″N   48°17′21″E
temp.,
°C
wind,
m/s
gust,
m/s
humid.,
%
clouds,
%
prec.,
mm/h
press.,
hPa
HPBL,
m
15 april, thu
thu1500:00+11sse22865 0.0 102320
03:00+9sse22871 0.0 102214
06:00+9sse23904 0.0 102154
09:00+14s34670 0.0 1021353
12:00+18s34524 0.0 10191002
15:00+18ssw344257 0.0 10181538
18:00+16s11540 0.0 101811
21:00+13s11610 0.0 101810
16 april, fri
fri1600:00+11n11675 0.0 101810
03:00+9nne34851 0.0 101946
06:00+7nne599764 0.0 1021256
09:00+10ne6884100 0.0 1022531
12:00+14ne666344 0.0 1022950
15:00+15ne665877 0.0 10221278
18:00+12ne6106792 0.0 1022495
21:00+8ne612735 0.0 1024373
17 april, sat
sat1700:00+7ne5118092 0.0 1025370
03:00+6ne51180100 0.0 1025461
06:00+5ne5117227 0.0 1026417
09:00+9ene69515 0.0 1027693
12:00+12ene67370 0.0 10261111
15:00+12ne67330 0.0 10261358
18:00+10ne58440 0.0 1026337
21:00+6nne38600 0.0 1026162
18 april, sun
sun1800:00+4nne38670 0.0 1026158
03:00+3nne38750 0.0 1026156
06:00+3nne397436 0.0 1027229
09:00+9ne57545 0.0 1027795
12:00+11ne67455 0.0 10261593
15:00+12ne784162 0.0 10261912
18:00+9ne710535 0.0 10281098
21:00+5ene612505 0.0 1030589
19 april, mon
mon1900:00+3ene5105649 0.0 1031408
03:00+1ene410625 0.0 1033313
06:00+1ene511545 0.0 1035552
09:00+4ene79350 0.0 10361436
12:00+6ene67315 0.0 10361741
15:00+7ene56335 0.0 10361856
18:00+6e46415 0.0 1037613
21:00+3ene34540 0.0 103872